Torna al catalogo

SL-8 DEB

AttivoPO
NORAD 27738·DEBRIS·🇷🇺 Russia

Lanciato Dec 17, 1981 da Plesetsk Cosmodrome

Loading…

Prossimi Passaggi (prossime 24 ore)

TLE

AggiornatoSource: Space-Track

Epoca: Sep 13, 2026, 15:29 UTC

1 27738U 81120K   26256.64562338  .00000043  00000-0  33048-3 0  9995
2 27738  82.9576 220.0236 0058029 109.0170  65.5176 12.15744497602487

Traccia SL-8 DEB in tempo reale con AllMySat

Download on the App Store